When you browse on this site, cookies collect data to enhance your experience and personalize the content and advertising you see.
Visit our Privacy Policy to learn more. By continuing to use the site, you agree to this use of cookies and data.
  • In United Kingdom
  • List of Countries
  • For 7 days
  • Water Temperature
  • Weather Map
  • Weather Widgets
  • user-avatar
    Login

    Hourly Weather London

    Today, 25 August, Sunday

    Time Temperature Precipitation Wind Pressure Humidity
    00:00 +21°C° 0 mm 1 mps 761 mmHg 69%
    01:00 +21°C° 0 mm 1 mps 761 mmHg 68%
    02:00 +20°C° 0 mm 1 mps 761 mmHg 68%
    03:00 +20°C° 0 mm 1 mps 761 mmHg 67%
    04:00 +20°C° 0 mm 1 mps 761 mmHg 67%
    05:00 +20°C° 0 mm 1 mps 761 mmHg 67%
    06:00 +21°C° 0 mm 1 mps 761 mmHg 66%
    07:00 +23°C° 0 mm 1 mps 761 mmHg 60%
    08:00 +24°C° 0 mm 1 mps 762 mmHg 54%
    09:00 +26°C° 0 mm 2 mps 762 mmHg 48%
    10:00 +28°C° 0 mm 2 mps 762 mmHg 43%
    11:00 +30°C° 0 mm 2 mps 762 mmHg 38%
    12:00 +31°C° 0 mm 2 mps 762 mmHg 33%
    13:00 +31°C° 0 mm 2 mps 762 mmHg 33%
    14:00 +31°C° 0 mm 3 mps 762 mmHg 33%
    15:00 +33°C° 0 mm 3 mps 762 mmHg 33%
    16:00 +30°C° 0 mm 3 mps 762 mmHg 38%
    17:00 +29°C° 0 mm 3 mps 762 mmHg 43%
    18:00 +28°C° 0 mm 2 mps 762 mmHg 48%
    19:00 +26°C° 0 mm 2 mps 762 mmHg 51%
    20:00 +25°C° 0 mm 1 mps 762 mmHg 53%
    21:00 +23°C° 0 mm 1 mps 763 mmHg 56%
    22:00 +23°C° 0 mm 1 mps 762 mmHg 56%
    23:00 +23°C° 0 mm 1 mps 762 mmHg 56%

    Tomorrow, 26 August, Monday

    Time Temperature Precipitation Wind Pressure Humidity
    00:00 +22°C° 0 mm 1 mps 762 mmHg 56%
    01:00 +22°C° 0 mm 1 mps 762 mmHg 56%
    02:00 +21°C° 0 mm 1 mps 762 mmHg 56%
    03:00 +21°C° 0 mm 1 mps 762 mmHg 56%
    04:00 +19°C° 0 mm 0 mps 762 mmHg 58%
    05:00 +19°C° 0 mm 0 mps 762 mmHg 59%
    06:00 +19°C° 0 mm 0 mps 762 mmHg 61%
    07:00 +23°C° 0 mm 1 mps 762 mmHg 56%
    08:00 +25°C° 0 mm 1 mps 762 mmHg 51%
    09:00 +27°C° 0 mm 2 mps 762 mmHg 46%
    10:00 +28°C° 0 mm 2 mps 762 mmHg 42%
    11:00 +30°C° 0 mm 2 mps 762 mmHg 39%
    12:00 +31°C° 0 mm 2 mps 761 mmHg 35%
    13:00 +31°C° 0 mm 3 mps 761 mmHg 35%
    14:00 +33°C° 0 mm 3 mps 761 mmHg 34%
    15:00 +33°C° 0 mm 3 mps 760 mmHg 34%
    16:00 +31°C° 0 mm 3 mps 760 mmHg 38%
    17:00 +29°C° 0 mm 2 mps 760 mmHg 41%
    18:00 +28°C° 0 mm 2 mps 760 mmHg 45%
    19:00 +27°C° 0 mm 2 mps 760 mmHg 48%
    20:00 +26°C° 0 mm 1 mps 760 mmHg 50%
    21:00 +24°C° 0 mm 1 mps 761 mmHg 53%
    22:00 +24°C° 0 mm 1 mps 760 mmHg 56%
    23:00 +23°C° 0 mm 1 mps 760 mmHg 59%

    Day after tomorrow, 27 August, Tuesday

    Time Temperature Precipitation Wind Pressure Humidity
    00:00 +23°C° 0 mm 1 mps 760 mmHg 62%
    01:00 +22°C° 0 mm 1 mps 760 mmHg 63%
    02:00 +22°C° 0 mm 1 mps 760 mmHg 63%
    03:00 +22°C° 0 mm 1 mps 760 mmHg 64%
    04:00 +22°C° 0 mm 1 mps 760 mmHg 65%
    05:00 +22°C° 0 mm 1 mps 759 mmHg 67%
    06:00 +22°C° 0 mm 1 mps 759 mmHg 68%
    07:00 +23°C° 0 mm 1 mps 760 mmHg 65%
    08:00 +24°C° 0 mm 2 mps 760 mmHg 61%
    09:00 +26°C° 0 mm 2 mps 760 mmHg 58%
    10:00 +27°C° 0 mm 2 mps 760 mmHg 53%
    11:00 +29°C° 0 mm 2 mps 760 mmHg 49%
    12:00 +30°C° 0 mm 1 mps 760 mmHg 44%
    13:00 +30°C° 0 mm 2 mps 759 mmHg 43%
    14:00 +31°C° 0 mm 2 mps 759 mmHg 43%
    15:00 +31°C° 0 mm 2 mps 759 mmHg 42%
    16:00 +30°C° 0.1 mm 2 mps 759 mmHg 47%
    17:00 +28°C° 0.1 mm 2 mps 759 mmHg 53%
    18:00 +27°C° 0.1 mm 2 mps 759 mmHg 58%
    19:00 +26°C° 0.1 mm 2 mps 759 mmHg 62%
    20:00 +25°C° 0.1 mm 2 mps 759 mmHg 67%
    21:00 +24°C° 0.1 mm 2 mps 759 mmHg 71%
    22:00 +23°C° 0 mm 2 mps 759 mmHg 72%
    23:00 +23°C° 0 mm 1 mps 759 mmHg 73%

    28 August, Wednesday

    Time Temperature Precipitation Wind Pressure Humidity
    00:00 +23°C° 0 mm 1 mps 759 mmHg 73%
    01:00 +22°C° 0.1 mm 1 mps 758 mmHg 74%
    02:00 +22°C° 0.1 mm 1 mps 758 mmHg 74%
    03:00 +20°C° 0.1 mm 0 mps 758 mmHg 74%
    04:00 +20°C° 0.3 mm 0 mps 757 mmHg 75%
    05:00 +20°C° 0.3 mm 0 mps 757 mmHg 75%
    06:00 +20°C° 0.3 mm 0 mps 757 mmHg 76%
    07:00 +22°C° 0.5 mm 1 mps 757 mmHg 75%
    08:00 +23°C° 0.5 mm 1 mps 757 mmHg 74%
    09:00 +23°C° 0.5 mm 1 mps 757 mmHg 73%
    10:00 +24°C° 0.1 mm 1 mps 757 mmHg 68%
    11:00 +26°C° 0.1 mm 2 mps 757 mmHg 63%
    12:00 +27°C° 0.1 mm 2 mps 757 mmHg 58%
    13:00 +27°C° 0.1 mm 2 mps 757 mmHg 58%
    14:00 +27°C° 0.1 mm 2 mps 757 mmHg 57%
    15:00 +27°C° 0.1 mm 3 mps 757 mmHg 57%
    16:00 +25°C° 0.4 mm 3 mps 757 mmHg 61%
    17:00 +24°C° 0.4 mm 3 mps 757 mmHg 64%
    18:00 +22°C° 0.4 mm 3 mps 757 mmHg 67%
    19:00 +23°C° 0.1 mm 2 mps 757 mmHg 69%
    20:00 +21°C° 0.1 mm 2 mps 758 mmHg 72%
    21:00 +20°C° 0.1 mm 2 mps 758 mmHg 74%
    22:00 +19°C° 0.1 mm 2 mps 758 mmHg 75%
    23:00 +19°C° 0.1 mm 2 mps 758 mmHg 77%

    29 August, Thursday

    Time Temperature Precipitation Wind Pressure Humidity
    00:00 +18°C° 0.1 mm 2 mps 758 mmHg 78%
    01:00 +18°C° 0 mm 2 mps 758 mmHg 81%
    02:00 +18°C° 0 mm 2 mps 758 mmHg 83%
    03:00 +17°C° 0 mm 2 mps 758 mmHg 85%
    04:00 +17°C° 0 mm 3 mps 759 mmHg 86%
    05:00 +17°C° 0 mm 3 mps 759 mmHg 86%
    06:00 +17°C° 0 mm 3 mps 759 mmHg 86%
    07:00 +18°C° 0 mm 3 mps 760 mmHg 81%
    08:00 +18°C° 0 mm 4 mps 760 mmHg 76%
    09:00 +19°C° 0 mm 4 mps 761 mmHg 71%
    10:00 +19°C° 0 mm 4 mps 761 mmHg 65%
    11:00 +20°C° 0 mm 4 mps 762 mmHg 59%
    12:00 +21°C° 0 mm 4 mps 762 mmHg 53%
    13:00 +21°C° 0 mm 4 mps 762 mmHg 50%
    14:00 +22°C° 0 mm 4 mps 762 mmHg 46%
    15:00 +22°C° 0 mm 4 mps 762 mmHg 42%
    16:00 +21°C° 0 mm 4 mps 763 mmHg 46%
    17:00 +20°C° 0 mm 4 mps 763 mmHg 50%
    18:00 +20°C° 0 mm 3 mps 763 mmHg 55%
    19:00 +19°C° 0 mm 3 mps 764 mmHg 58%
    20:00 +17°C° 0 mm 3 mps 764 mmHg 62%
    21:00 +16°C° 0 mm 3 mps 765 mmHg 66%
    22:00 +16°C° 0 mm 3 mps 765 mmHg 69%
    23:00 +14°C° 0 mm 3 mps 765 mmHg 73%

    30 August, Friday

    Time Temperature Precipitation Wind Pressure Humidity
    00:00 +15°C° 0 mm 2 mps 765 mmHg 76%
    01:00 +14°C° 0 mm 2 mps 765 mmHg 78%
    02:00 +14°C° 0 mm 2 mps 765 mmHg 80%
    03:00 +14°C° 0 mm 2 mps 765 mmHg 82%
    04:00 +14°C° 0 mm 2 mps 765 mmHg 83%
    05:00 +14°C° 0 mm 2 mps 765 mmHg 83%
    06:00 +14°C° 0 mm 2 mps 765 mmHg 84%
    07:00 +15°C° 0 mm 2 mps 765 mmHg 78%
    08:00 +17°C° 0 mm 2 mps 766 mmHg 72%
    09:00 +19°C° 0 mm 3 mps 766 mmHg 66%
    10:00 +20°C° 0 mm 3 mps 766 mmHg 63%
    11:00 +20°C° 0 mm 3 mps 766 mmHg 59%
    12:00 +21°C° 0 mm 3 mps 766 mmHg 55%
    13:00 +21°C° 0 mm 2 mps 765 mmHg 55%
    14:00 +23°C° 0 mm 2 mps 765 mmHg 55%
    15:00 +23°C° 0 mm 2 mps 765 mmHg 54%
    16:00 +21°C° 0 mm 2 mps 765 mmHg 57%
    17:00 +21°C° 0 mm 2 mps 765 mmHg 60%
    18:00 +20°C° 0 mm 2 mps 764 mmHg 63%
    19:00 +19°C° 0 mm 2 mps 765 mmHg 68%
    20:00 +19°C° 0 mm 1 mps 765 mmHg 72%
    21:00 +18°C° 0 mm 1 mps 765 mmHg 76%
    22:00 +18°C° 0 mm 1 mps 764 mmHg 78%
    23:00 +16°C° 0 mm 1 mps 764 mmHg 79%
    Show more